Regional Weather Roundup
Issued by NWS

Home | Current Version | Previous Version | Graphics & Text | Print | Product List | Glossary On
Versions: 1 2 3 4 5 6 7 8 9 10 11 12 13 14 15 16 17 18 19 20 21 22 23 24 25 26 27 28 29 30 31 32 33 34 35 36 37 38 39 40 41 42 43 44 45 46 47 48 49 50
000
ASUS43 KMKX 192111
RWRWI

WISCONSIN REGIONAL WEATHER ROUNDUP
NATIONAL WEATHER SERVICE MILWAUKEE/SULLIVAN WI
400 PM CDT FRI SEP 19 2014

NOTE: "FAIR" INDICATES FEW OR NO CLOUDS BELOW 12,000 FEET WITH NO
SIGNIFICANT WEATHER AND/OR OBSTRUCTIONS TO VISIBILITY.

WIZ001-002-006>008-014>016-023>028-192200-
NORTHWEST WISCONSIN

CITY           SKY/WX    TMP DP  RH WIND       PRES   REMARKS
SUPERIOR ARPT  RAIN      63  60  90 SW8       29.66F
ASHLAND        CLOUDY    65  56  72 SW10G17   29.71R
HAYWARD        CLOUDY    66  57  72 S10       29.73S
SIREN          CLOUDY    67  59  75 CALM      29.70F
RICE LAKE      CLOUDY    70  57  62 S12       29.74S
LADYSMITH      CLOUDY    68  56  66 S9        29.76R
EAU CLAIRE     MOSUNNY   76  57  51 S21G29    29.73F
MENOMONIE      MOCLDY    75  58  54 S21G28    29.72S
NEW RICHMOND   CLOUDY    74  60  61 S9G16     29.70F
OSCEOLA        CLOUDY    72  62  72 CALM      29.71F
$$

WIZ003>005-009-010-017-018-192200-
NORTH CENTRAL WISCONSIN

CITY           SKY/WX    TMP DP  RH WIND       PRES   REMARKS
WOODRUFF       PTSUNNY   69  55  60 S17G30    29.75F
RHINELANDER    MOSUNNY   68  51  54 S18G35    29.80F
EAGLE RIVER    PTSUNNY   66  49  53 SW8G21    29.77F
LAND O LAKES   PTSUNNY   66  50  56 S12G22    29.77F
PHILLIPS       PTSUNNY   67  55  64 S18G24    29.75S
TOMAHAWK       PTSUNNY   67  53  59 S8G22     29.78F
MEDFORD        MOSUNNY   68  54  61 S22G30    29.77F
MERRILL        PTSUNNY   69  55  61 S15G23    29.80F
$$

WIZ029-030-035-036-043>047-192200-
CENTRAL WISCONSIN

CITY           SKY/WX    TMP DP  RH WIND       PRES   REMARKS
WAUSAU         MOSUNNY   71  53  52 S24G31    29.81F
MOSINEE        SUNNY     70  55  60 S22G29    29.84F
MARSHFIELD     PTSUNNY   72  54  53 S24G35    29.80F
STEVENS POINT  MOSUNNY   71  51  50 S21G29    29.86F
WAUPACA        MOSUNNY   74  53  47 S18G28    29.88F
WAUTOMA        MOSUNNY   74  52  46 S16G28    29.89F
WISC RAPIDS    MOSUNNY   72  52  49 SW20G30   29.87F
CAMP DOUGLAS   PTSUNNY   73  57  56 S16G32    29.85F
$$

WIZ011>013-019>022-031-037>040-048>050-192200-
NORTHEAST WISCONSIN

CITY           SKY/WX    TMP DP  RH WIND       PRES   REMARKS
ANTIGO         PTSUNNY   68  53  58 S21G33    29.83F
STURGEON BAY   PTSUNNY   63  55  77 S21G31    29.91F
GREEN BAY      MOSUNNY   72  51  47 S17G26    29.89F
MANITOWOC      MOSUNNY   64  56  75 S28G33    29.94F
APPLETON       PTSUNNY   72  48  43 S26G32    29.90F
CLINTONVILLE   PTSUNNY   72  50  46 S17G23    29.88S
OSHKOSH        MOSUNNY   72  50  45 S21G41    29.91F
$$

WIZ032>034-041-042-053>061-192200-
SOUTHWEST WISCONSIN

CITY           SKY/WX    TMP DP  RH WIND       PRES   REMARKS
LA CROSSE      SUNNY     76  56  49 S22G32    29.79F
SPARTA         MOSUNNY   74  53  47 S10G21    29.84F
VIROQUA        FAIR      73  53  50 S21G32    29.87F
BOSCOBEL       MOSUNNY   77  53  43 S12G26    29.89F
PRAIRIE DU CHI PTSUNNY   74  53  46 SE12G21   29.87F
PLATTEVILLE    FAIR      74  51  45 S20G26    29.95F
$$

WIZ056-057-062-063-064-067-068-192200-
SOUTH CENTRAL WISCONSIN

CITY           SKY/WX    TMP DP  RH WIND       PRES   REMARKS
BARABOO/DELLS  MOSUNNY   73  49  42 S18G31    29.89F
LONE ROCK      SUNNY     78  52  40 S15G28    29.91F
WATERTOWN      SUNNY     73  50  45 S18       29.95F
MADISON        PTSUNNY   74  50  42 S17G26    29.95F
MIDDLETON      FAIR      74  47  37 S23       29.94F
MONROE         SUNNY     72  50  46 S22G29    29.97F
JANESVILLE     SUNNY     75  46  35 S18G28    29.97F
$$

WIZ051-052-058>065-066-070>072-192200-
SOUTHEAST WISCONSIN

CITY           SKY/WX    TMP DP  RH WIND       PRES   REMARKS
MILWAUKEE      PTSUNNY   71  51  49 S18       29.98F
WAUKESHA       NOT AVBL
MILWAUKEE/TIMM SUNNY     72  45  37 S14G29    29.98F
RACINE         SUNNY     69  52  54 S16G28    30.02F
BURLINGTON     SUNNY     72  48  42 S14G22    29.99F
KENOSHA        SUNNY     73  48  41 S21       30.00F
FOND DU LAC    MOSUNNY   72  48  42 S18G32    29.92F
SHEBOYGAN      SUNNY     69  53  56 S18G26    29.95F
WEST BEND      MOSUNNY   72  45  37 S17G24    29.96F
JUNEAU         MOSUNNY   72  49  43 S20G26    29.96F
$$

LSZ147-162-192200-
LAKE SUPERIOR

STATION/POSITION TIME  TEMP    WIND        PRES    WAVE
                       AIR SEA DIR/SP/G            HT/PER
                 (UTC) (F)     (DEG/KT/KT) (MB)    (FT/S)
W MID LAKE BUOY  2050   53 47  210/  6/  8 1005.2F   2/ 5
DEVILS ISLAND    2100   60     170/  9/ 11 1003.9F
PORT WING        2000   67     210/  7/ 16 1006.1
SAXON HARBOR     2000   69     200/  9/ 19 1005.4F
$$

LMZ867-665-643>646-192200-
LAKE MICHIGAN

STATION/POSITION TIME  TEMP    WIND        PRES    WAVE
                       AIR SEA DIR/SP/G            HT/PER
                 (UTC) (F)     (DEG/KT/KT) (MB)    (FT/S)
N MID LAKE BUOY  2050   60 58  190/ 25/ 29 1012.4F   6/ 7
NORTHPORT PIER   2029   60     160/ 11/ 26 1012.9F
KEWAUNEE LAKESHO 2000   57     170/ 17/ 20 1013.5F
SHEBOYGAN LAKESH 2100   58 55  180/ 20/ 20 1014.5F
PORT WASHINGTON  2040   65     200/  8/ 13 1015.6F
ATWATER BUOY     2100   62     160/ 19/ 25 1015.9F
MILWAUKEE LAKESH 2000   61     150/ 20/ 23   N/A
S MID LAKE BUOY  2050   65 65  160/ 14/ 16 1017.1F   3/ 5
KENOSHA   LAKESH 2100   65     180/ 14/ 20 1015.6F
$$

TC  - TEMPERATURE IN CELSIUS
VSB - VISIBILITY IN STATUTE MILES
WCI - WIND CHILL INDEX
HX  - HEAT INDEX



USA.gov is the U.S. government's official web portal to all federal, state and local government web resources and services.